Location: Bégole
(43.1574°N, 0.3291°E)
Time: 13:51:35
(UTC+00:00)

Cosmos 1238 Rocket - Pass Details

Date: 28 January 2023
Orbit: 372 x 962 km, 83.0° (Epoch: 19 March)

Event Time Altitude Azimuth Distance (km) Brightness Sun altitude
Rises 17:59:42 0° 349° (N) 2,883 6.4 -10.2°
Reaches altitude 10° 18:01:46 10° 347° (NNW) 2,062 5.7 -10.5°
Maximum altitude 18:06:22 68° 265° (W) 793 3.8 -11.3°
Drops below altitude 10° 18:11:48 10° 183° (S) 2,432 6.3 -12.3°
Sets 18:14:25 0° 181° (S) 3,444 7.1 -12.8°
